Weather Roundup
Issued by NWS Chicago, IL

Home | Current Version | Previous Version | Text Only | Print | Product List | Glossary On
Versions: 1 2 3 4 5 6 7 8 9 10 11 12 13 14 15 16 17 18 19 20 21 22 23 24 25 26 27 28 29 30 31 32 33 34 35 36 37 38 39 40 41 42 43 44 45 46 47 48 49 50
000
NZUS59 KLOT 212210
HRRLOT

CHICAGO AREA WEATHER ROUNDUP
NATIONAL WEATHER SERVICE CHICAGO/ROMEOVILLE IL
500 PM CDT THU AUG 21 2014

NOTE: "FAIR" INDICATES FEW OR NO CLOUDS BELOW 12,000 FEET WITH NO
SIGNIFICANT WEATHER AND/OR OBSTRUCTIONS TO VISIBILITY.

* THESE STATIONS ARE NOT UNDER NWS QUALITY CONTROL. THEY ALSO MAY NOT
  REPORT WEATHER SUCH AS PRECIPITATION OR FOG.

ILZ005-006-012>014-019>023-212300-
NORTHEAST ILLINOIS

CITY           SKY/WX    TMP DP  RH WIND       PRES   REMARKS
OHARE          CLOUDY    75  71  87 SE9       29.93F
MIDWAY         TSTM      77  75  93 E7        29.94F FOG
AURORA         LGT RAIN  76  73  91 SE6       29.92F FOG
LANSING*       TSTM      75  72  89 N8G28     29.94R
JOLIET*        TSTM      79  73  81 N10G16    29.96R HX  82
WAUKEGAN       CLOUDY    73  70  90 SE9       29.92S FOG
DUPAGE AIRPORT LGT RAIN  76  71  85 S7        29.94F
WHEELING       CLOUDY    76  73  91 S10       29.94F FOG
KANKAKEE*      CLOUDY    85  76  76 W7        29.91F HX  94
MORRIS*        CLOUDY    81  75  81 N5G18     29.94S HX  87
LEWIS AIRPORT* HVY RAIN  76  74  95 N6        29.95S
NORTHERLY IS     N/A     72  70  93 NE7         N/A
$$

WIZ051-052-058>065-066-070>072-212300-
SOUTHEAST WISCONSIN

CITY           SKY/WX    TMP DP  RH WIND       PRES   REMARKS
MILWAUKEE      PTSUNNY   77  71  82 S8        29.92S
KENOSHA*       CLOUDY    75  72  90 S12       29.93S
RACINE*        CLOUDY    76  69  79 S9        29.94F
BURLINGTON     PTSUNNY   74  71  90 S9        29.91F
WAUKESHA       PTSUNNY   75  68  78 S8        29.93S
WEST BEND      CLOUDY    72  66  83 S6        29.93S
$$

INZ001>003-010>013-019-020-212300-
NORTHWEST INDIANA

CITY           SKY/WX    TMP DP  RH WIND       PRES   REMARKS
GARY*          TSTM      75  73  94 N20       29.95R VSB 1
MICHIGAN CITY* NOT AVBL
RENSSELAER*    NOT AVBL
VALPARAISO     LGT RAIN  77  74  90 E10       29.93F
$$

LMZ740>746-212300-
SOUTHERN LAKE MICHIGAN

STATION/POSITION TIME  SKY/WX   TEMP WIND        PRES    VSBY
                                AIR  DIR/SP/G
                 (UTC)          (F)  (DEG/KT/KT) (MB)    (MI)
HARRISON CRIB    2200            71   30/  5/  7   N/A
BURNHAM HARBOR   2200            72   80/  7/  9   N/A
CALUMET HARBOR   2200            72   40/  4/  6 1013.3S
BURNS HARBOR     2100            77   80/ 11/ 16   N/A
MICHIGAN CITY    2200            77  110/  5/  7   N/A
$$

ABBREVIATIONS USED IN REMARKS
   TC - TEMPERATURE IN CELSIUS
  WCI - WIND CHILL INDEX
   HX - HEAT INDEX
  VSB - VISIBILITY
$$



USA.gov is the U.S. government's official web portal to all federal, state and local government web resources and services.